Location: Newark
(33.6333°S, 78.8500°W)
Time: 11:57:46
(UTC+00:00)

Courier 1B - Pass Details

Date: 01 October 2019
Orbit: 962 x 1209 km, 28.3° (Epoch: 18 October)

Event Time Altitude Azimuth Distance (km) Brightness Sun altitude
Rises 21:02:14 0° 276° (W) 4,105 12.0 27.2°
Reaches altitude 10° 21:05:07 10° 279° (W) 3,150 12.0 26.6°
Maximum altitude 21:12:51 59° 356° (N) 1,375 8.8 25.0°
Drops below altitude 10° 21:20:25 10° 73° (ENE) 3,093 9.7 23.5°
Sets 21:23:15 0° 76° (ENE) 4,027 10.2 22.9°
